Location: Härggis
(46.9540°N, 8.4897°E)
Time: 21:30:50
(UTC+00:00)

SL-16 R/B - Pass Details

Date: 05 October 2022
Orbit: 985 x 1007 km, 99.6° (Epoch: 05 December)

Event Time Altitude Azimuth Distance (km) Brightness Sun altitude
Exits shadow 00:05:58 19° 19° (NNE) 2,195 4.8 -46.3°
Drops below altitude 10° 00:08:05 10° 4° (N) 2,779 5.4 -46.1°
Sets 00:10:57 0° 353° (N) 3,736 6.2 -46.0°
